Location: Limerick
(52.6650°N, 8.6230°W)
Time: 04:51:22
(UTC+00:00)

ISS - Pass Details

Date: 03 December 2019
Orbit: 411 x 421 km, 51.6° (Epoch: 15 December)

Event Time Altitude Azimuth Distance (km) Brightness Sun altitude
Rises 18:09:01 0° 271° (W) 2,358 1.5 -15.2°
Reaches altitude 10° 18:11:07 10° 270° (W) 1,496 0.3 -15.5°
Maximum altitude 18:14:28 73° 186° (S) 441 -3.7 -16.0°
Enters shadow 18:15:42 35° 108° (ESE) 691 -3.1 -16.2°
